GW0819 Weather Reports


Display with metric or nautical units.
time (UTC)temp
F
wind
direction
speed
MPH
gust
MPH
rain 1hr
in
rain 24hr
in
rain mn
in
humidity
%
barometer
mb
20260906200857 91 160 16.0 19.0 0.00 0.00 0.00 33 1013.9
20260906200353 91 155 10.0 19.0 0.00 0.00 0.00 35 1013.8
20260906195848 90 189 7.0 18.0 0.00 0.00 0.00 35 1013.7
20260906195344 90 159 9.0 17.0 0.00 0.00 0.00 35 1014.1
20260906194840 91 142 14.0 19.0 0.00 0.00 0.00 36 1014.1
20260906194336 91 190 12.0 15.0 0.00 0.00 0.00 35 1014.3
20260906193831 90 166 12.0 18.0 0.00 0.00 0.00 36 1014.5
20260906193326 91 138 15.0 23.0 0.00 0.00 0.00 36 1014.5
20260906192821 90 162 8.0 18.0 0.00 0.00 0.00 37 1014.3
20260906192315 90 181 6.0 16.0 0.00 0.00 0.00 37 1014.6
20260906191815 91 130 17.0 19.0 0.00 0.00 0.00 36 1014.6
20260906191309 91 166 18.0 21.0 0.00 0.00 0.00 37 1014.6
20260906190803 90 166 15.0 16.0 0.00 0.00 0.00 37 1014.6
20260906190258 90 162 13.0 14.0 0.00 0.00 0.00 36 1014.6
20260906185757 90 181 19.0 22.0 0.00 0.00 0.00 37 1014.7
20260906185256 89 207 12.0 16.0 0.00 0.00 0.00 38 1014.8
20260906184751 89 153 13.0 18.0 0.00 0.00 0.00 38 1014.8
20260906184246 90 177 20.0 21.0 0.00 0.00 0.00 37 1014.7
20260906183742 89 157 13.0 20.0 0.00 0.00 0.00 38 1014.8
20260906183238 89 123 21.0 23.0 0.00 0.00 0.00 38 1015.0
20260906182738 90 194 15.0 19.0 0.00 0.00 0.00 38 1015.1
20260906182234 89 146 16.0 24.0 0.00 0.00 0.00 39 1015.3
20260906181729 90 146 8.0 17.0 0.00 0.00 0.00 40 1015.4
20260906181226 89 139 17.0 20.0 0.00 0.00 0.00 40 1015.3
20260906180725 88 162 14.0 15.0 0.00 0.00 0.00 41 1015.6
20260906180220 89 153 18.0 22.0 0.00 0.00 0.00 40 1015.6
20260906175718 89 139 17.0 19.0 0.00 0.00 0.00 40 1015.6
20260906175214 88 138 15.0 21.0 0.00 0.00 0.00 41 1015.5
20260906174712 89 185 14.0 16.0 0.00 0.00 0.00 41 1016.0
20260906174207 88 195 8.0 14.0 0.00 0.00 0.00 43 1015.8
20260906173702 87 154 13.0 20.0 0.00 0.00 0.00 43 1016.0
20260906173157 87 146 15.0 21.0 0.00 0.00 0.00 44 1016.2
20260906172657 87 155 11.0 14.0 0.00 0.00 0.00 43 1016.2
20260906172152 87 150 10.0 15.0 0.00 0.00 0.00 43 1016.3
20260906171652 87 200 14.0 17.0 0.00 0.00 0.00 44 1016.0
20260906171148 88 194 16.0 19.0 0.00 0.00 0.00 43 1016.4
20260906170644 86 166 14.0 17.0 0.00 0.00 0.00 45 1016.4
20260906170143 85 169 11.0 18.0 0.00 0.00 0.00 46 1016.0
20260906165639 85 147 9.0 16.0 0.00 0.00 0.00 47 1016.3
20260906165135 85 157 17.0 17.0 0.00 0.00 0.00 47 1016.5
20260906164633 85 141 18.0 19.0 0.00 0.00 0.00 48 1016.2
20260906164129 85 165 11.0 15.0 0.00 0.00 0.00 48 1016.4
20260906163625 85 180 10.0 17.0 0.00 0.00 0.00 48 1016.5
20260906163121 85 171 11.0 16.0 0.00 0.00 0.00 47 1016.5
20260906162618 85 177 6.0 14.0 0.00 0.00 0.00 48 1016.3
20260906162112 84 179 10.0 12.0 0.00 0.00 0.00 49 1016.4
20260906161607 84 183 7.0 14.0 0.00 0.00 0.00 49 1016.2
20260906161106 84 149 12.0 16.0 0.00 0.00 0.00 50 1016.2
20260906160605 83 195 13.0 15.0 0.00 0.00 0.00 51 1016.4
20260906160104 82 223 9.0 14.0 0.00 0.00 0.00 51 1015.8
20260906155601 82 207 8.0 14.0 0.00 0.00 0.00 52 1016.2
20260906155058 82 168 8.0 15.0 0.00 0.00 0.00 52 1016.3
20260906154553 82 175 12.0 18.0 0.00 0.00 0.00 52 1016.0
20260906154051 82 210 11.0 16.0 0.00 0.00 0.00 53 1016.2
20260906153550 81 185 11.0 15.0 0.00 0.00 0.00 54 1016.2
20260906153045 81 195 12.0 15.0 0.00 0.00 0.00 54 1015.9
20260906152544 81 193 13.0 14.0 0.00 0.00 0.00 54 1016.0
20260906152039 80 191 12.0 14.0 0.00 0.00 0.00 56 1016.2
20260906151534 80 202 15.0 16.0 0.00 0.00 0.00 57 1016.0
20260906151030 80 196 9.0 15.0 0.00 0.00 0.00 57 1016.0
20260906150525 78 213 11.0 16.0 0.00 0.00 0.00 59 1016.3
20260906150020 79 193 12.0 15.0 0.00 0.00 0.00 59 1016.2
20260906145519 78 198 12.0 15.0 0.00 0.00 0.00 61 1016.0
20260906145014 78 208 12.0 13.0 0.00 0.00 0.00 61 1016.2
20260906144508 78 179 8.0 15.0 0.00 0.00 0.00 61 1015.9
20260906144003 77 198 9.0 14.0 0.00 0.00 0.00 62 1016.0
20260906143458 77 170 10.0 13.0 0.00 0.00 0.00 62 1016.0
20260906142955 76 199 11.0 14.0 0.00 0.00 0.00 63 1015.9
20260906142449 77 213 9.0 12.0 0.00 0.00 0.00 62 1016.0
20260906141943 76 191 9.0 14.0 0.00 0.00 0.00 63 1015.8
20260906141437 76 196 7.0 13.0 0.00 0.00 0.00 62 1015.8
20260906140932 76 202 11.0 12.0 0.00 0.00 0.00 62 1015.9
20260906140427 75 168 9.0 10.0 0.00 0.00 0.00 62 1015.9
20260906135925 75 160 6.0 9.0 0.00 0.00 0.00 62 1016.0
20260906135424 74 165 8.0 9.0 0.00 0.00 0.00 63 1015.7
20260906134920 74 167 8.0 9.0 0.00 0.00 0.00 63 1015.6
20260906134415 73 164 6.0 8.0 0.00 0.00 0.00 64 1015.6
20260906133910 73 189 5.0 6.0 0.00 0.00 0.00 64 1015.6
20260906133406 73 155 4.0 5.0 0.00 0.00 0.00 65 1015.5
20260906132901 72 145 7.0 8.0 0.00 0.00 0.00 66 1015.3
20260906132356 72 156 7.0 7.0 0.00 0.00 0.00 65 1015.3
20260906131852 72 162 5.0 5.0 0.00 0.00 0.00 66 1015.1
20260906131347 71 151 5.0 5.0 0.00 0.00 0.00 67 1015.4
20260906130843 70 197 2.0 3.0 0.00 0.00 0.00 68 1015.5
20260906130342 69 219 3.0 3.0 0.00 0.00 0.00 68 1015.3
20260906125841 69 199 2.0 3.0 0.00 0.00 0.00 69 1015.0
20260906125339 69 218 1.0 2.0 0.00 0.00 0.00 69 1015.0
20260906124834 69 234 0.0 2.0 0.00 0.00 0.00 70 1014.8
20260906124330 69 245 2.0 3.0 0.00 0.00 0.00 69 1015.1
20260906123829 69 207 3.0 4.0 0.00 0.00 0.00 69 1015.3
20260906123324 69 158 6.0 7.0 0.00 0.00 0.00 69 1015.4
20260906122823 69 153 6.0 7.0 0.00 0.00 0.00 69 1015.3
20260906122318 69 146 5.0 6.0 0.00 0.00 0.00 69 1015.0
20260906121815 69 138 6.0 6.0 0.00 0.00 0.00 69 1015.1
20260906121311 69 114 3.0 3.0 0.00 0.00 0.00 68 1015.0
20260906120807 69 89 2.0 3.0 0.00 0.00 0.00 69 1015.0
20260906120303 69 94 3.0 4.0 0.00 0.00 0.00 68 1014.9
20260906115759 69 70 3.0 3.0 0.00 0.00 0.00 68 1014.9
20260906115254 69 98 3.0 4.0 0.00 0.00 0.00 67 1014.9
20260906114752 69 99 4.0 4.0 0.00 0.00 0.00 67 1014.9
20260906114242 69 99 3.0 4.0 0.00 0.00 0.00 66 1015.0
20260906113737 70 67 2.0 3.0 0.00 0.00 0.00 66 1014.9
20260906113237 70 47 3.0 3.0 0.00 0.00 0.00 65 1014.9
20260906112731 70 89 2.0 3.0 0.00 0.00 0.00 66 1014.6
20260906112228 70 112 3.0 3.0 0.00 0.00 0.00 67 1014.8
20260906111727 70 117 0.0 1.0 0.00 0.00 0.00 67 1014.6
20260906111222 71 269 0.0 0.0 0.00 0.00 0.00 66 1014.3
20260906110717 71 217 0.0 0.0 0.00 0.00 0.00 65 1014.6
20260906110213 71 217 0.0 1.0 0.00 0.00 0.00 65 1014.5
20260906105711 71 249 2.0 3.0 0.00 0.00 0.00 65 1014.3
20260906105207 71 243 2.0 2.0 0.00 0.00 0.00 65 1014.1
20260906104707 71 247 3.0 4.0 0.00 0.00 0.00 65 1014.3
20260906104201 71 245 3.0 4.0 0.00 0.00 0.00 65 1014.3
20260906103658 72 246 3.0 4.0 0.00 0.00 0.00 65 1014.0
20260906103154 72 241 3.0 4.0 0.00 0.00 0.00 65 1014.1
20260906102649 72 242 3.0 3.0 0.00 0.00 0.00 64 1014.1
20260906102148 72 241 3.0 4.0 0.00 0.00 0.00 63 1014.2
20260906101648 72 250 4.0 5.0 0.00 0.00 0.00 64 1014.0
20260906101143 72 248 4.0 4.0 0.00 0.00 0.00 63 1014.2
20260906100639 72 254 4.0 4.0 0.00 0.00 0.00 62 1014.2
20260906100133 73 255 4.0 4.0 0.00 0.00 0.00 62 1014.1
20260906095628 73 260 3.0 4.0 0.00 0.00 0.00 62 1014.3
20260906095124 73 254 4.0 4.0 0.00 0.00 0.00 62 1014.2
20260906094622 73 248 3.0 3.0 0.00 0.00 0.00 60 1014.2
20260906094119 73 221 1.0 2.0 0.00 0.00 0.00 60 1014.3
20260906093614 73 210 2.0 2.0 0.00 0.00 0.00 60 1014.3
20260906093108 73 217 0.0 0.0 0.00 0.00 0.00 60 1014.2
20260906092603 73 203 1.0 1.0 0.00 0.00 0.00 60 1014.3
20260906092059 73 194 1.0 2.0 0.00 0.00 0.00 60 1014.3
20260906091554 73 196 2.0 2.0 0.00 0.00 0.00 60 1014.3
20260906091051 73 230 1.0 2.0 0.00 0.00 0.00 60 1014.2
20260906090551 73 203 3.0 4.0 0.00 0.00 0.00 60 1014.3
20260906090046 73 224 3.0 3.0 0.00 0.00 0.00 60 1014.2
20260906085545 73 205 2.0 3.0 0.00 0.00 0.00 60 1014.2
20260906085044 73 201 2.0 2.0 0.00 0.00 0.00 60 1014.3
20260906084539 73 200 2.0 2.0 0.00 0.00 0.00 60 1014.0
20260906084038 73 236 2.0 2.0 0.00 0.00 0.00 60 1014.2
20260906083534 74 195 0.0 1.0 0.00 0.00 0.00 59 1014.3
20260906083034 74 126 1.0 2.0 0.00 0.00 0.00 59 1014.5
20260906082528 74 120 2.0 2.0 0.00 0.00 0.00 58 1014.6
20260906082024 74 104 1.0 2.0 0.00 0.00 0.00 58 1014.5
20260906081520 75 122 2.0 2.0 0.00 0.00 0.00 57 1014.5
20260906081015 75 134 3.0 4.0 0.00 0.00 0.00 57 1014.5
20260906080512 75 154 2.0 3.0 0.00 0.00 0.00 57 1014.3
20260906080008 75 209 1.0 2.0 0.00 0.00 0.00 57 1014.5
20260906075502 74 225 1.0 2.0 0.00 0.00 0.00 57 1014.8
20260906074956 74 172 1.0 3.0 0.00 0.00 0.00 56 1014.8
20260906074451 75 215 3.0 3.0 0.00 0.00 0.00 56 1014.5
20260906073949 75 226 4.0 5.0 0.00 0.00 0.00 55 1014.5
20260906073444 75 230 4.0 5.0 0.00 0.00 0.00 55 1014.3
20260906072941 75 227 3.0 5.0 0.00 0.00 0.00 55 1014.5
20260906072436 76 240 6.0 6.0 0.00 0.00 0.00 54 1014.5
20260906071932 76 211 7.0 7.0 0.00 0.00 0.00 54 1014.5
20260906071427 76 200 5.0 7.0 0.00 0.00 0.00 54 1014.3
20260906070923 76 193 5.0 6.0 0.00 0.00 0.00 54 1014.7
20260906070419 76 162 5.0 5.0 0.00 0.00 0.00 54 1014.3
20260906065914 76 142 7.0 8.0 0.00 0.00 0.00 54 1014.5
20260906065409 76 137 6.0 7.0 0.00 0.00 0.00 54 1014.6
20260906064904 76 131 6.0 7.0 0.00 0.00 0.00 54 1014.6
20260906064400 76 133 5.0 7.0 0.00 0.00 0.00 54 1014.7
20260906063854 77 130 7.0 7.0 0.00 0.00 0.00 55 1014.7
20260906063350 77 156 5.0 6.0 0.00 0.00 0.00 54 1014.9
20260906062845 77 158 5.0 5.0 0.00 0.00 0.00 53 1015.0
20260906062344 77 155 4.0 5.0 0.00 0.00 0.00 53 1014.9
20260906061840 77 150 4.0 6.0 0.00 0.00 0.00 53 1015.3
20260906061336 77 154 5.0 7.0 0.00 0.00 0.00 52 1015.3
20260906060831 77 156 5.0 5.0 0.00 0.00 0.00 52 1015.3
20260906060329 78 131 4.0 6.0 0.00 0.00 0.00 51 1015.1
20260906055824 78 117 5.0 5.0 0.00 0.00 0.00 51 1014.9
20260906055320 78 115 4.0 6.0 0.00 0.00 0.00 51 1015.0
20260906054815 78 105 6.0 7.0 0.00 0.00 0.00 51 1015.1
20260906054310 78 102 6.0 8.0 0.00 0.00 0.00 51 1015.3
20260906053806 78 113 5.0 7.0 0.00 0.00 0.00 50 1015.5
20260906053302 78 115 6.0 6.0 0.00 0.00 0.00 50 1015.4
20260906052756 79 112 5.0 6.0 0.00 0.00 0.00 50 1015.3
20260906052253 79 109 5.0 6.0 0.00 0.00 0.00 49 1015.1
20260906051750 79 123 4.0 5.0 0.00 0.00 0.00 49 1015.3
20260906051249 80 124 5.0 7.0 0.00 0.00 0.00 47 1015.3
20260906050744 80 129 4.0 6.0 0.00 0.00 0.00 47 1015.1
20260906050240 81 127 7.0 8.0 0.00 0.00 0.00 46 1015.4
20260906045738 81 128 5.0 7.0 0.00 0.00 0.00 45 1015.5
20260906045233 81 159 4.0 6.0 0.00 0.00 0.00 44 1015.3
20260906044728 82 159 3.0 6.0 0.00 0.00 0.00 44 1015.5
20260906044223 82 168 7.0 8.0 0.00 0.00 0.00 44 1015.5
20260906043720 82 174 5.0 5.0 0.00 0.00 0.00 44 1015.4
20260906043215 82 158 5.0 6.0 0.00 0.00 0.00 44 1015.4
20260906042715 82 168 6.0 10.0 0.00 0.00 0.00 43 1015.3
20260906042209 82 140 8.0 9.0 0.00 0.00 0.00 44 1015.0
20260906041704 82 219 8.0 11.0 0.00 0.00 0.00 44 1015.5
20260906041159 82 162 5.0 5.0 0.00 0.00 0.00 43 1015.3
20260906040654 82 179 7.0 7.0 0.00 0.00 0.00 43 1014.9
20260906040150 82 183 7.0 9.0 0.00 0.00 0.00 43 1015.0
20260906035645 82 191 7.0 9.0 0.00 0.00 0.00 43 1015.3
20260906035141 83 199 8.0 8.0 0.00 0.00 0.00 42 1014.8
20260906034635 83 191 6.0 8.0 0.00 0.00 0.00 41 1014.8
20260906034130 83 178 5.0 8.0 0.00 0.00 0.00 41 1014.8
20260906033625 84 157 8.0 9.0 0.00 0.00 0.00 40 1014.8
20260906033120 84 168 7.0 10.0 0.00 0.00 0.00 39 1014.9
20260906032617 84 188 6.0 10.0 0.00 0.00 0.00 39 1014.7
20260906032116 84 173 8.0 10.0 0.00 0.00 0.00 39 1014.5
20260906031612 84 174 7.0 8.0 0.00 0.00 0.00 40 1014.5
20260906031108 84 167 8.0 11.0 0.00 0.00 0.00 40 1014.2
20260906030606 84 174 10.0 11.0 0.00 0.00 0.00 41 1014.5
20260906030101 83 183 6.0 9.0 0.00 0.00 0.00 41 1014.2
20260906025555 84 193 6.0 9.0 0.00 0.00 0.00 41 1013.8
20260906025054 84 201 8.0 9.0 0.00 0.00 0.00 41 1013.6
20260906024549 84 191 5.0 9.0 0.00 0.00 0.00 40 1013.6
20260906024049 84 195 7.0 9.0 0.00 0.00 0.00 40 1013.6
20260906023546 84 173 6.0 11.0 0.00 0.00 0.00 40 1013.4
20260906023040 84 169 7.0 9.0 0.00 0.00 0.00 40 1013.2
20260906022535 84 200 8.0 11.0 0.00 0.00 0.00 38 1013.0
20260906022031 84 208 8.0 10.0 0.00 0.00 0.00 38 1013.1
20260906021526 85 198 8.0 9.0 0.00 0.00 0.00 38 1012.8
20260906021020 84 200 6.0 7.0 0.00 0.00 0.00 38 1013.1
20260906020519 85 201 7.0 8.0 0.00 0.00 0.00 37 1012.9
20260906020019 85 180 4.0 6.0 0.00 0.00 0.00 38 1012.8
20260906015518 84 166 5.0 5.0 0.00 0.00 0.00 38 1013.0
20260906015018 84 178 5.0 7.0 0.00 0.00 0.00 38 1012.8
20260906014513 85 182 5.0 6.0 0.00 0.00 0.00 37 1012.6
20260906014009 85 206 5.0 7.0 0.00 0.00 0.00 37 1012.6
20260906013504 85 187 5.0 7.0 0.00 0.00 0.00 38 1012.5
20260906013000 86 194 6.0 9.0 0.00 0.00 0.00 37 1012.3
20260906012454 86 222 9.0 11.0 0.00 0.00 0.00 36 1012.5
20260906011954 86 202 9.0 11.0 0.00 0.00 0.00 37 1012.6
20260906011449 86 216 8.0 12.0 0.00 0.00 0.00 36 1012.4
20260906010944 86 224 10.0 11.0 0.00 0.00 0.00 36 1012.6
20260906010440 86 237 7.0 10.0 0.00 0.00 0.00 35 1012.4
20260906005936 86 217 9.0 15.0 0.00 0.00 0.00 35 1012.6
20260906005436 87 231 12.0 16.0 0.00 0.00 0.00 35 1012.5
20260906004934 87 206 10.0 13.0 0.00 0.00 0.00 33 1012.5
20260906004428 87 201 11.0 17.0 0.00 0.00 0.00 34 1012.4
20260906003925 87 207 11.0 15.0 0.00 0.00 0.00 35 1012.3
20260906003419 87 194 14.0 18.0 0.00 0.00 0.00 34 1012.5
20260906002915 88 181 12.0 21.0 0.00 0.00 0.00 33 1012.5
20260906002414 88 193 16.0 19.0 0.00 0.00 0.00 33 1012.5
20260906001909 89 174 16.0 17.0 0.00 0.00 0.00 32 1012.1
20260906001405 88 163 9.0 20.0 0.00 0.00 0.00 32 1012.4
20260906000905 89 163 19.0 21.0 0.00 0.00 0.00 31 1012.2
20260906000403 91 178 7.0 16.0 0.00 0.00 0.00 28 1012.2
20260905235855 90 165 13.0 17.0 0.00 0.00 0.00 30 1012.2
20260905235349 90 182 14.0 19.0 0.00 0.00 0.00 31 1012.0
20260905234845 89 163 19.0 21.0 0.00 0.00 0.00 33 1012.2
20260905234340 90 154 17.0 21.0 0.00 0.00 0.00 34 1012.0
20260905233835 89 157 17.0 20.0 0.00 0.00 0.00 34 1012.0
20260905233330 91 161 16.0 22.0 0.00 0.00 0.00 31 1012.1
20260905232829 91 174 22.0 27.0 0.00 0.00 0.00 30 1012.0
20260905232325 92 160 20.0 23.0 0.00 0.00 0.00 29 1012.1
20260905231821 92 164 21.0 22.0 0.00 0.00 0.00 27 1011.6
20260905231316 91 161 15.0 22.0 0.00 0.00 0.00 29 1012.0
20260905230812 92 164 17.0 22.0 0.00 0.00 0.00 29 1011.6
20260905230310 92 155 16.0 24.0 0.00 0.00 0.00 28 1012.1
20260905225809 93 155 11.0 17.0 0.00 0.00 0.00 29 1011.5
20260905225306 92 159 16.0 22.0 0.00 0.00 0.00 31 1011.6
20260905224804 93 146 18.0 23.0 0.00 0.00 0.00 30 1011.6
20260905224300 94 160 13.0 20.0 0.00 0.00 0.00 28 1011.5
20260905223755 95 163 17.0 17.0 0.00 0.00 0.00 28 1011.5
20260905223252 94 172 11.0 17.0 0.00 0.00 0.00 27 1011.6
20260905222747 94 154 14.0 17.0 0.00 0.00 0.00 28 1011.6
20260905222246 93 160 12.0 20.0 0.00 0.00 0.00 28 1011.6
20260905221742 93 135 17.0 24.0 0.00 0.00 0.00 28 1011.7
20260905221239 95 165 13.0 18.0 0.00 0.00 0.00 27 1011.7
20260905220735 94 153 15.0 20.0 0.00 0.00 0.00 28 1011.7
20260905220231 93 141 12.0 20.0 0.00 0.00 0.00 30 1011.6
20260905215730 94 160 13.0 23.0 0.00 0.00 0.00 30 1012.0
20260905215226 94 144 10.0 19.0 0.00 0.00 0.00 29 1011.8
20260905214721 92 165 13.0 15.0 0.00 0.00 0.00 30 1012.1
20260905214217 93 150 12.0 20.0 0.00 0.00 0.00 30 1012.3
20260905213712 93 163 15.0 19.0 0.00 0.00 0.00 30 1012.0
20260905213208 93 144 8.0 13.0 0.00 0.00 0.00 29 1012.2
20260905212703 92 152 11.0 13.0 0.00 0.00 0.00 29 1011.8
20260905212202 93 175 7.0 17.0 0.00 0.00 0.00 29 1012.0
20260905211657 93 133 21.0 23.0 0.00 0.00 0.00 29 1012.0
20260905211152 93 136 9.0 10.0 0.00 0.00 0.00 28 1012.1
20260905210649 93 150 11.0 15.0 0.00 0.00 0.00 28 1012.4
20260905210149 95 182 13.0 16.0 0.00 0.00 0.00 26 1012.5
20260905205648 97 141 8.0 12.0 0.00 0.00 0.00 26 1012.6
20260905205147 95 82 2.0 4.0 0.00 0.00 0.00 27 1012.2
20260905204646 95 94 7.0 8.0 0.00 0.00 0.00 27 1012.6
20260905204142 95 117 9.0 11.0 0.00 0.00 0.00 27 1012.6
20260905203637 95 151 10.0 15.0 0.00 0.00 0.00 26 1012.5
20260905203132 95 146 10.0 18.0 0.00 0.00 0.00 27 1012.6
20260905202628 96 130 11.0 17.0 0.00 0.00 0.00 26 1012.6
20260905202123 95 148 11.0 17.0 0.00 0.00 0.00 27 1012.8
20260905201618 97 168 8.0 14.0 0.00 0.00 0.00 25 1012.9